Погода в Зареченске

Россия / Мурманская область     66°40′53″N   31°25′58″E
темп.,
°C
ветер,
м/с
пор.,
м/с
влажн.,
%
обл.,
%
осадки,
мм/ч
давл.,
гПа
погр.,
м
31 июля, сб
сб3100:00+10всв51095100 2.1 997574
03:00+10в51097100 2.9 996647
06:00+10в5896100 0.9 995564
09:00+9в4696100 2.3 995527
12:00+9всв3595100 1.3 996411
15:00+10ссв2291100 1.3 996319
18:00+11зсз128660 0.0 996331
21:00+12зсз118939 0.0 99725
1 августа, вс
вс100:00+10з119278 0.0 99718
03:00+10юз119157 0.0 99825
06:00+10юз118870 0.0 99959
09:00+13юв23745 0.0 999425
12:00+16юв346498 0.1 998648
15:00+16вюв346663 0.3 998350
18:00+16в5875100 0.3 997288
21:00+13всв239382 0.9 99656
2 августа, пн
пн200:00+13вюв129899 1.2 99778
03:00+12всв2399100 2.3 997105
06:00+12св2399100 0.9 997156
09:00+12с119699 1.3 998183
12:00+13зсз259598 0.3 999288
15:00+15зсз456474 0.3 1000721
18:00+15сз34605 0.0 1001716
21:00+12ссз367250 0.0 1003198
3 августа, вт
вт300:00+11с2378100 0.0 100388
03:00+10св2588100 0.7 1003247
06:00+9с1495100 2.8 1003200
09:00+10с3894100 3.6 1002408
12:00+10с3992100 1.3 1002498
15:00+9ссв4991100 3.8 1002568
18:00+8с4991100 4.2 1003713
21:00+8ссз4888100 6.5 1004618
4 августа, ср
ср400:00+7ссз51288100 0.9 1005756
03:00+7ссз61387100 2.8 1005774
06:00+7ссз61286100 1.6 1007849
09:00+8сз51082100 2.1 10081071
12:00+12ссз5957100 0.0 10101437
15:00+14ссз3648100 0.0 10111354
18:00+14сз4651100 0.0 1012871
21:00+11зюз116779 0.0 101310